Englewood, CO

7:07 PM MST on February 06, 2016 (GMT -0700)
Centennial

Weather History for KAPA - March, 2014

Change the Weather History Date:

Thursday, March 6, 2014

  Actual Average Record
Temperature  
Mean Temperature 49 °F -  
Max Temperature 63 °F 47 °F 70 °F (2012)
Min Temperature 35 °F 22 °F 15 °F (2008)
Degree Days  
Heating Degree Days 16    
Month to date heating degree days 180  
Moisture  
Dew Point 18 °F    
Average Humidity 30    
Maximum Humidity 45    
Minimum Humidity 14    
Precipitation  
Precipitation 0.00 in - - ()
Month to date precipitation 0.26  
Year to date precipitation 1.11  
Sea Level Pressure  
Sea Level Pressure 29.84 in    
Wind  
Wind Speed 10 mph (SW)    
Max Wind Speed 20 mph    
Max Gust Speed 24 mph    
Visibility 10 miles    
Events      
Averages and records for this station are not official NWS values.
T = Trace of Precipitation, MM = Missing Value Source: NWS Daily Summary

Daily Weather History Graph

Daily Weather History Graph

Search for Another Location

Airport or City:

Trip Planner

Search our weather history database for the weather conditions in past years. The results will help you decide how hot, cold, wet, or windy it might be!

Date:

Astronomy

Mar. 06, 2014 Rise Set
Actual Time 6:24 AM MST 5:57 PM MST
Civil Twilight 5:57 AM MST 6:23 PM MST
Nautical Twilight 5:26 AM MST 6:55 PM MST
Astronomical Twilight 4:55 AM MST 7:26 PM MST
Moon 9:35 AM MST (3/6) No Moon Set
Length of Visible Light 12h 26m
Length of Day
11h 32m
Waxing Crescent, 33% of the Moon is Illuminated
Mar 6
Waxing Crescent
Mar 8
First Quarter
Mar 16
Full
Mar 23
Last Quarter
Mar 30
New

Hourly Weather History & Observations

Time (MST) Temp. Windchill Dew Point Humidity Pressure Visibility Wind Dir Wind Speed Gust Speed Precip Events Conditions
12:53 AM 37.9 °F 31.5 °F 18.0 °F 45% 30.04 in 10.0 mi SSE 9.2 mph - N/A   Scattered Clouds
1:53 AM 37.9 °F 30.9 °F 16.0 °F 41% 30.00 in 10.0 mi SSW 10.4 mph - N/A   Clear
2:53 AM 36.0 °F 28.0 °F 16.0 °F 44% 29.98 in 10.0 mi SSW 11.5 mph - N/A   Partly Cloudy
3:53 AM 43.0 °F 36.8 °F 14.0 °F 31% 29.93 in 10.0 mi SW 11.5 mph - N/A   Partly Cloudy
4:53 AM 37.9 °F 31.5 °F 16.0 °F 41% 29.95 in 10.0 mi South 9.2 mph - N/A   Partly Cloudy
5:53 AM 44.1 °F 37.4 °F 15.1 °F 31% 29.94 in 10.0 mi SW 13.8 mph - N/A   Partly Cloudy
6:53 AM 46.9 °F - 12.9 °F 25% 29.93 in 10.0 mi SW 17.3 mph - N/A   Scattered Clouds
7:53 AM 48.0 °F - 14.0 °F 26% 29.94 in 10.0 mi SW 18.4 mph - N/A   Mostly Cloudy
8:53 AM 53.1 °F - 15.1 °F 22% 29.91 in 10.0 mi SW 18.4 mph - N/A   Mostly Cloudy
9:53 AM 55.0 °F - 16.0 °F 22% 29.89 in 10.0 mi SW 17.3 mph - N/A   Mostly Cloudy
10:53 AM 57.0 °F - 16.0 °F 20% 29.87 in 10.0 mi WSW 13.8 mph - N/A   Overcast
11:53 AM 59.0 °F - 16.0 °F 19% 29.84 in 10.0 mi SW 17.3 mph - N/A   Overcast
12:53 PM 63.0 °F - 14.0 °F 15% 29.78 in 10.0 mi SW 12.7 mph - N/A   Overcast
1:53 PM 61.0 °F - 16.0 °F 17% 29.77 in 10.0 mi WSW 11.5 mph - N/A   Overcast
2:53 PM 62.1 °F - 12.9 °F 15% 29.76 in 10.0 mi SW 8.1 mph - N/A   Overcast
3:53 PM 60.1 °F - 17.1 °F 19% 29.73 in 10.0 mi WSW 8.1 mph - N/A   Overcast
4:53 PM 59.0 °F - 16.0 °F 19% 29.74 in 10.0 mi ENE 3.5 mph - N/A   Overcast
5:53 PM 52.0 °F - 21.0 °F 30% 29.75 in 10.0 mi Calm Calm - N/A   Overcast
6:53 PM 46.0 °F 43.1 °F 25.0 °F 44% 29.75 in 10.0 mi South 5.8 mph - N/A   Mostly Cloudy
7:53 PM 46.0 °F 43.1 °F 26.1 °F 46% 29.75 in 10.0 mi SSW 5.8 mph - N/A   Overcast
8:53 PM 46.0 °F 44.8 °F 24.1 °F 42% 29.72 in 10.0 mi West 3.5 mph - N/A   Overcast
9:53 PM 45.0 °F - 23.0 °F 42% 29.73 in 10.0 mi Calm Calm - N/A   Overcast
10:53 PM 43.0 °F 39.5 °F 23.0 °F 45% 29.73 in 10.0 mi SW 5.8 mph - N/A   Mostly Cloudy
11:53 PM 45.0 °F - 19.9 °F 37% 29.72 in 10.0 mi Calm Calm - N/A   Mostly Cloudy